Regional Weather Roundup
Issued by NWS Goodland, KS

Home | Current Version | Previous Version | Graphics & Text | Print | Product List | Glossary On
Versions: 1 2 3 4 5 6 7 8 9 10 11 12 13 14 15 16 17 18 19 20 21 22 23 24 25 26 27 28 29 30 31 32 33 34 35 36 37 38 39 40 41 42 43 44 45 46 47 48 49 50
000
ASUS43 KGLD 271708
RWRGLD

GOODLAND FORECAST AREA HOURLY WEATHER ROUNDUP
NATIONAL WEATHER SERVICE GOODLAND KS
1100 AM MDT THU APR 27 2017

...OFFICIAL OBSERVATIONS...

CITY           SKY/WX    TMP DP  RH WIND       PRES   REMARKS
GOODLAND KS    MOSUNNY   57  36  45 SE16G22   29.55F
HILL CITY KS   LGT RAIN  50  36  58 SE16      29.67F
IMPERIAL NEB   CLOUDY    46  33  60 E14       29.60F
MCCOOK NEB     CLOUDY    45  35  68 E18       29.64F
AKRON CO       SUNNY     53  40  61 E10       29.53F
BURLINGTON CO  NOT AVBL
LIMON CO       CLOUDY    54  33  45 S7        29.52F
$$

...UNOFFICIAL OBSERVATIONS...

CITY           SKY/WX    TMP DP  RH WIND       PRES   REMARKS
NORTON KS      PTSUNNY   48  32  53 E13       29.67F
SHARON SPRINGS   N/A     58  41  54 SE18G26     N/A
KIT CARSON CO    N/A     53  37  54 CALM        N/A
$$




USA.gov is the U.S. government's official web portal to all federal, state and local government web resources and services.